Regional Weather Roundup
Issued by NWS Newport/Morehead, NC

Current Version | Previous Version | Graphics & Text | Print | Product List | Glossary Off
Versions: 1 2 3 4 5 6 7 8 9 10 11 12 13 14 15 16 17 18 19 20 21 22 23 24 25 26 27 28 29 30 31 32 33 34 35 36 37 38 39 40 41 42 43 44 45 46 47 48 49 50
684 ASUS42 KMHX 141925 RWRMHX WEATHER ROUNDUP FOR EASTERN NORTH CAROLINA NATIONAL WEATHER SERVICE NEWPORT/MOREHEAD CITY NC 200 PM EST THU DEC 14 2017 NOTE: "FAIR" INDICATES FEW OR NO CLOUDS BELOW 12,000 FEET WITH NO SIGNIFICANT WEATHER AND/OR OBSTRUCTIONS TO VISIBILITY NCZ015>017-031-032-045>047-102-103-142000- NORTH COAST CITY SKY/WX TMP DP RH WIND PRES REMARKS EDENTON SUNNY 58 28 31 NW12 29.84S ELIZABETH CITY SUNNY 57 31 37 W12G21 29.83R KITTY HAWK CLEAR 52 28 39 W7 29.83S MANTEO SUNNY 53 29 39 W7 29.85S $$ NCZ045>047-081-094-103-104-142000- CENTRAL COAST CITY SKY/WX TMP DP RH WIND PRES REMARKS FRISCO SUNNY 52 36 54 W7 29.85F $$ NCZ095-097-098-100-101-142000- SOUTHERN COAST CITY SKY/WX TMP DP RH WIND PRES REMARKS BEAUFORT SUNNY 56 37 49 W10 29.85S CEDAR ISLAND NOT AVBL JACKSONVILLE MOSUNNY 60 30 32 W8 29.85S PINEY ISLAND N/A N/A N/A N/A W8 29.84F WILMINGTON SUNNY 61 29 29 W7 29.86S $$ NCZ011>013-027>030-043-044-078>080-089-090>093-098-142000- COASTAL PLAIN CITY SKY/WX TMP DP RH WIND PRES REMARKS AHOSKIE SUNNY 54 26 35 CALM 29.84S CLINTON SUNNY 57 32 37 NW6 29.86S ELIZABETHTOWN NOT AVBL GOLDSBORO SUNNY 59 26 28 NW12 29.83F GREENVILLE SUNNY 55 27 33 NW5 29.87S HAVELOCK SUNNY 60 31 33 NW9 29.85F KENANSVILLE SUNNY 57 28 33 W8 29.86R KINSTON SUNNY 57 27 30 MISG 29.86S NEW BERN SUNNY 58 31 35 W9G17 29.85S RICHLANDS SUNNY 59 31 34 VRB6 29.86S ROCKY MOUNT SUNNY 56 27 32 W12 29.85S WASHINGTON SUNNY 57 27 31 CALM 29.84F WHITEVILLE SUNNY 59 31 34 SW5 29.86S $$ AMZ130-135-150-152-154-156-158-170-250-252-270-ANZ085-086-088-633-658-670-142000- MARINE OBSERVATIONS STATION/POSITION TIME TEMP WIND PRES WAVE SWELL AIR SEA DIR/SP/G HT/PER HT/PER (UTC) (F) (DEG/KT/KT) (MB) (FT/S) (FT/S) CHESAPEAKE LIGHT NOT AVBL 64 E VA BEACH 1850 51 61 320/ 19/ 27 1010.0 6/ 6 DUCK 1900 51 53 250/ 6/ 8 1009.8 2 E DUCK 1900 55 N/A 1/ 7 OREGON INLET 1900 52 42 310/ 10/ 11 1010.5 13E OREGON INLT 1848 63 N/A 4/ 9 3/ 9 HATTERAS CG 1900 50 50 260/ 8/ 9 1010.8 DIAMOND BUOY 1910 55 74 290/ 14/ 19 1011.1 CAPE LOOKOUT 1900 260/ 11/ 13 1011.2 BEAUFORT LAB 1900 56 50 230/ 4/ 8 1010.7 30 SE NEW RVR IN 1908 56 65 270/ 10/ 14 1011.5 30 SE NEW RVR IN 1900 65 N/A 6/ 7 27 SE WRIGHTSVLE 1908 55 65 250/ 10/ 14 1011.8 5 SE WRIGHTSVLE 1908 56 56 220/ 6/ 10 1011.0 225 S CAPE HAT 1850 68 74 250/ 21/ 27 1013.0 9/ 8 3/16 41 SE CHARLESTON 1910 73 230/ 17/ 21 1012.2 $$

USA.gov is the U.S. government's official web portal to all federal, state and local government web resources and services.